Wind_Speed
4 11 7 6 5 5 13 12 15 15 16 15 12 15 18 18 10 9 22 21 21 24 22 22 19 18 19 17 17 16 15 15 14 12 10 9 7 5 5 5 5 6 6 4 1 1 1 2 4
7 6 7 5 3 7 5 15 16 14 19 12 9 8 18 17 16 24 26 19 23 23 22 22 20 19 18 16 15 15 14 13 13 11 9 6 5 4 5 5 5 4 4 2 1 1 3 4 5
15 8 6 4 6 12 14 16 12 13 10 10 9 16 14 16 23 21 24 26 22 20 19 20 20 18 16 15 14 14 13 12 10 8 7 5 2 3 4 4 5 5 4 3 3 2 3 3 3
8 6 6 4 18 19 18 13 14 12 9 6 20 15 20 18 16 22 25 24 22 19 20 17 17 16 15 14 14 13 11 10 9 7 6 3 3 2 2 3 5 5 5 5 5 3 2 2 1
10 8 4 6 17 15 13 15 15 11 14 11 20 19 19 12 19 24 24 21 20 23 19 15 16 15 14 13 12 12 10 9 7 6 4 3 2 2 2 2 4 5 5 5 4 4 3 2 1
10 4 5 10 13 15 10 11 14 14 13 17 21 19 13 15 21 23 22 19 19 19 14 16 16 15 14 13 12 10 8 7 6 5 4 4 3 2 3 1 4 4 4 4 5 5 3 2 1
14 5 8 11 11 12 12 3 12 11 14 10 17 16 15 18 22 22 20 18 20 19 14 17 16 15 13 12 10 9 8 7 6 6 5 4 4 3 4 3 4 5 4 4 4 3 2 1 0
9 3 3 9 11 13 2 10 11 16 11 8 5 9 18 22 22 21 19 18 18 19 18 13 11 12 11 9 8 7 6 6 6 6 6 5 5 4 4 4 5 4 4 5 5 3 2 2 2
13 5 7 12 10 12 9 10 9 11 10 11 8 6 25 23 22 21 18 17 16 16 17 18 15 10 11 9 5 3 6 5 6 6 4 4 6 2 3 4 5 2 1 3 5 2 4 2 2
7 3 5 7 11 9 7 10 12 7 14 16 18 21 22 23 21 21 19 18 16 15 16 19 18 17 13 12 7 8 4 0 2 3 1 5 5 9 6 3 5 5 3 2 5 5 6 5 9
2 4 8 6 6 10 5 10 20 11 7 19 18 19 20 21 19 18 17 17 16 14 14 14 18 14 6 15 12 5 9 3 3 7 7 7 6 8 3 4 7 2 4 3 4 5 6 7 5
3 16 6 5 7 13 10 6 9 15 7 15 14 18 20 20 18 17 16 16 16 15 13 13 18 14 9 14 11 11 16 13 7 9 13 13 12 9 12 12 9 5 6 1 4 7 11 3 4
11 6 1 3 4 9 2 7 3 11 9 12 15 17 18 17 15 15 15 14 15 16 15 14 14 13 11 13 12 8 6 13 6 12 7 7 12 7 8 11 7 8 9 4 5 7 9 3 4
15 5 4 7 7 2 7 15 4 2 13 12 14 15 15 16 14 14 14 13 14 15 15 15 15 18 16 14 11 17 11 7 14 8 12 10 9 10 14 11 12 13 10 9 11 13 12 6 7
9 10 19 15 7 4 18 13 12 11 13 12 13 13 14 14 13 13 13 13 13 14 15 15 15 15 19 17 20 14 13 9 9 15 8 12 12 17 17 14 12 12 12 11 14 11 11 7 7
9 5 2 19 11 10 16 3 23 27 14 14 12 13 13 13 13 13 13 12 13 12 15 15 14 15 14 16 16 14 13 15 13 13 13 17 19 16 17 18 16 13 13 16 14 9 12 14 12
6 1 10 7 18 15 8 11 32 27 16 15 13 12 13 13 13 14 14 14 16 14 16 15 15 15 15 13 13 12 14 14 18 15 15 18 20 20 19 17 14 17 17 17 16 17 15 15 11
6 9 18 11 9 7 13 16 22 19 15 15 15 13 13 14 15 16 15 15 17 16 15 18 17 16 16 14 11 12 11 13 13 15 16 17 20 20 19 20 20 18 19 20 19 19 19 18 13
9 6 11 10 3 6 5 15 15 16 13 16 16 17 13 14 14 16 17 17 18 18 19 18 22 19 22 21 18 15 19 15 15 15 16 18 20 21 21 20 20 20 26 25 23 23 24 26 24
18 21 5 2 2 8 13 10 17 13 11 14 16 19 18 16 19 20 19 20 20 21 21 23 22 21 23 22 20 18 15 15 17 18 18 20 21 25 25 26 23 23 22 26 28 27 28 24 15
9 14 4 8 7 2 13 10 8 7 6 10 10 18 16 18 18 22 24 22 22 23 25 24 24 23 24 22 20 20 21 23 20 20 22 21 25 27 26 26 28 23 24 28 26 27 30 33 31
5 16 9 8 8 2 9 7 13 3 10 6 13 9 14 17 17 20 22 24 23 24 24 25 25 26 25 23 24 24 23 24 21 20 26 24 26 27 29 29 28 30 29 29 31 30 27 28 28
5 6 7 17 19 8 15 8 1 6 9 14 14 12 16 14 15 18 20 23 21 23 25 25 26 26 26 24 22 22 25 28 23 24 23 25 24 28 32 34 34 33 34 34 33 32 36 32 33
3 8 7 2 12 6 10 13 9 9 4 9 18 14 15 14 17 18 19 20 20 19 23 23 25 24 24 23 25 24 23 23 21 22 22 22 25 27 30 31 29 33 38 36 37 36 36 33 36
7 8 6 2 2 7 13 10 6 8 8 4 12 12 18 16 15 19 20 23 24 22 20 19 24 24 26 24 22 20 18 16 17 20 25 30 29 26 25 29 33 35 34 35 39 40 39 38 37
10 11 3 7 7 4 8 5 10 13 20 23 10 4 4 10 16 19 27 29 29 26 26 22 22 25 24 20 14 10 9 10 11 11 13 15 18 21 23 23 23 34 33 35 36 37 40 40 40
5 8 9 12 8 8 3 12 12 16 14 11 5 6 11 11 14 16 17 24 30 29 28 26 23 23 21 16 12 11 11 12 11 11 16 20 21 23 24 25 28 28 33 36 35 37 37 37 39
5 7 8 6 4 10 12 7 7 5 7 8 6 11 11 11 13 22 23 8 17 26 25 22 22 22 18 14 12 10 10 9 9 11 15 16 17 18 20 23 28 32 32 31 32 34 36 35 38
8 10 12 8 11 9 7 6 4 7 4 3 4 11 15 18 22 25 29 27 22 17 18 22 20 17 17 16 12 10 10 10 12 14 15 16 18 19 22 23 27 31 29 31 33 34 36 36 35
6 4 7 7 9 10 8 6 11 9 1 6 14 9 6 9 13 17 23 23 7 11 20 20 16 16 16 16 13 12 11 12 14 15 15 17 20 20 20 23 25 24 24 25 28 34 34 32 33
Wind_Direction
12 15 334 208 204 227 105 112 103 108 80 76 53 74 74 47 27 103 134 146 158 154 155 154 147 146 154 149 151 153 153 157 154 153 145 132 136 141 142 141 123 115 122 142 124 70 12 326 329
300 338 271 259 236 108 64 86 77 80 91 105 93 113 82 58 91 126 138 142 139 147 151 153 151 148 153 156 155 154 159 162 161 171 165 154 144 148 154 162 177 166 158 169 201 315 309 307 322
349 324 297 267 237 103 95 78 82 94 110 100 94 48 40 103 117 128 138 141 140 148 146 153 153 155 153 158 158 162 168 167 174 179 177 169 160 169 151 169 180 195 214 242 264 292 314 305 319
330 279 272 267 56 77 94 107 112 114 106 47 119 90 88 109 119 130 136 141 141 145 165 160 155 157 160 159 159 160 165 171 185 186 175 179 204 165 181 216 221 221 229 235 243 254 272 290 300
291 286 302 129 86 80 68 69 96 105 102 82 98 97 107 104 118 136 140 142 140 151 173 167 161 160 160 163 162 161 162 170 178 180 183 198 210 189 198 225 233 218 214 223 218 212 218 187 180
343 305 237 99 101 106 104 86 92 79 101 111 107 108 109 127 135 142 143 145 145 158 173 174 162 160 161 166 167 164 168 178 185 191 197 201 167 158 162 177 208 188 184 179 185 183 170 150 151
161 309 282 110 100 100 85 65 92 108 102 86 117 111 134 141 145 146 147 150 148 144 156 167 166 164 168 169 167 174 177 178 171 174 182 186 172 146 139 124 118 154 159 170 161 130 115 95 68
280 284 65 35 116 88 111 74 55 85 73 90 148 132 152 149 151 151 151 151 153 155 151 157 170 174 170 167 171 176 188 189 187 188 189 189 145 116 112 131 108 130 153 138 107 95 41 37 37
3 309 309 129 113 120 142 123 80 106 109 74 37 116 144 150 153 155 157 157 157 161 160 161 173 172 156 210 207 228 234 204 184 184 169 145 164 51 96 73 17 344 198 113 102 22 6 9 228
62 291 269 56 99 115 149 114 134 164 134 117 99 109 135 150 155 159 165 165 168 171 172 170 169 173 169 190 212 253 183 105 108 128 219 169 216 238 188 322 323 308 261 150 67 0 353 271 299
242 249 99 44 40 108 146 91 120 68 150 118 124 139 149 155 162 164 171 171 177 176 170 183 176 166 155 177 210 176 228 197 224 186 228 176 245 246 222 271 291 300 260 274 345 338 317 238 272
238 250 42 68 54 336 104 168 79 101 59 88 125 148 157 161 167 169 175 174 179 180 184 182 180 178 166 185 175 186 194 204 256 226 227 188 195 183 213 245 271 311 317 177 245 270 309 277 224
221 214 77 134 126 189 113 75 195 82 107 105 130 147 159 166 171 169 174 177 180 180 186 188 194 179 169 170 190 214 191 200 245 232 274 205 175 176 232 204 218 239 272 287 228 255 276 290 257
276 27 333 135 231 279 97 359 92 62 118 119 139 151 162 164 171 168 174 174 179 180 187 191 194 207 199 205 190 211 195 213 209 225 269 267 202 219 213 230 238 234 234 246 263 220 256 264 275
270 38 4 323 121 172 86 345 328 298 131 138 150 161 166 171 172 172 179 175 185 179 189 194 193 211 202 209 214 203 203 209 229 218 236 255 256 218 225 217 241 241 247 239 253 287 294 308 243
130 62 113 253 200 132 107 285 287 284 150 160 153 159 170 177 179 179 183 183 183 180 185 191 195 206 221 214 217 212 208 208 222 230 229 241 254 250 232 229 217 236 238 252 263 263 276 267 264
317 50 183 225 203 144 151 161 226 243 172 158 157 160 175 180 183 184 186 189 183 191 187 193 196 201 220 227 224 220 211 229 209 224 234 241 251 266 242 229 243 219 237 240 253 264 267 269 266
201 197 187 161 169 209 186 175 194 188 180 155 164 166 178 182 189 187 189 188 186 190 201 194 202 193 212 238 233 223 231 230 230 226 227 236 250 260 262 251 228 233 240 237 242 255 262 269 263
233 272 89 82 39 286 96 168 144 155 195 157 171 165 184 187 186 184 191 189 189 194 197 207 199 207 207 216 232 226 221 233 236 234 231 230 236 250 258 263 249 242 229 233 246 248 260 259 251
20 348 40 35 70 211 90 88 128 150 194 169 186 170 186 193 187 189 194 199 201 200 210 210 218 216 224 227 224 229 244 239 241 243 243 245 240 235 241 252 255 242 243 239 234 239 253 267 251
340 304 300 152 106 337 124 112 106 98 176 143 223 180 184 194 205 191 194 202 210 211 211 220 230 233 237 237 232 236 234 232 236 244 240 247 255 256 253 237 249 253 233 239 249 255 248 252 258
149 271 273 224 144 275 198 124 69 142 137 180 220 182 191 198 197 202 196 202 212 217 216 222 235 244 248 249 237 229 245 248 253 254 256 254 248 261 265 264 252 249 247 241 237 243 250 249 252
208 273 301 94 98 334 18 39 251 220 184 180 165 186 192 180 189 204 199 208 214 217 217 219 231 242 245 246 249 247 238 240 250 261 263 264 259 260 257 264 270 265 258 256 247 240 240 244 253
325 270 342 150 128 215 197 184 196 213 225 307 160 175 178 184 186 191 193 199 199 211 207 214 226 237 244 241 248 248 242 242 245 245 250 258 267 266 261 263 269 271 263 257 262 257 250 247 247
251 346 306 34 203 232 203 223 140 195 189 309 276 217 175 175 204 194 191 191 192 193 198 208 216 225 231 240 239 239 246 248 251 257 257 258 257 260 272 265 267 272 269 266 265 262 258 255 252
279 288 84 266 290 245 206 108 151 176 196 202 228 349 321 206 230 214 210 196 189 190 191 196 217 226 231 223 210 207 221 238 255 269 275 274 269 260 261 269 274 263 262 265 268 268 264 259 253
1 321 331 291 349 77 67 85 142 184 205 92 359 255 232 255 277 281 261 222 193 193 190 186 211 230 216 204 199 211 226 235 244 249 254 263 269 272 273 268 270 271 269 269 270 268 268 262 257
290 310 316 327 42 306 104 113 165 192 79 53 328 342 338 332 330 326 355 139 220 185 183 182 203 221 218 213 216 229 241 255 272 293 299 285 292 292 286 280 271 268 270 270 268 267 268 264 260
339 322 349 345 334 315 350 75 261 132 72 337 309 358 356 9 4 353 341 332 337 178 183 181 201 213 217 217 227 234 252 266 282 290 291 293 290 288 291 289 281 274 268 264 268 269 270 267 265
304 9 326 349 330 332 340 338 110 96 107 52 26 4 42 7 346 340 330 321 325 172 170 177 198 208 218 226 230 238 249 261 276 280 282 280 283 287 293 293 292 284 278 275 262 264 267 266 264
Height
1486 1488 1493 1497 1501 1492 1478 1475 1465 1470 1475 1481 1482 1483 1490 1493 1493 1516 1515 1521 1521 1526 1531 1534 1538 1541 1544 1547 1549 1552 1554 1556 1558 1560 1562 1563 1564 1565 1566 1567 1567 1567 1566 1566 1566 1567 1567 1567 1568
1483 1491 1490 1485 1487 1480 1487 1464 1471 1473 1479 1484 1485 1485 1490 1499 1502 1510 1518 1522 1525 1528 1531 1535 1539 1542 1545 1548 1550 1553 1555 1557 1559 1561 1563 1564 1565 1565 1567 1567 1568 1568 1567 1567 1567 1568 1568 1568 1568
1485 1488 1487 1477 1475 1475 1479 1470 1475 1479 1482 1481 1486 1490 1496 1507 1510 1513 1519 1524 1528 1531 1535 1537 1540 1543 1546 1549 1551 1554 1556 1557 1559 1561 1564 1564 1566 1567 1567 1567 1568 1568 1567 1567 1567 1568 1569 1569 1569
1493 1489 1486 1477 1471 1464 1469 1472 1475 1480 1484 1484 1487 1498 1506 1509 1512 1516 1521 1526 1530 1534 1536 1539 1541 1544 1547 1550 1552 1554 1556 1558 1560 1562 1564 1564 1566 1567 1567 1567 1567 1567 1567 1567 1567 1568 1569 1570 1570
1493 1490 1488 1475 1474 1469 1469 1471 1473 1477 1481 1485 1487 1502 1507 1512 1514 1519 1524 1528 1531 1534 1537 1540 1542 1545 1548 1550 1552 1554 1556 1558 1560 1562 1563 1564 1565 1566 1566 1567 1567 1566 1567 1567 1567 1567 1568 1570 1571
1489 1489 1494 1484 1476 1470 1472 1473 1476 1479 1485 1489 1495 1502 1510 1514 1517 1521 1525 1529 1532 1532 1537 1540 1543 1546 1548 1551 1553 1555 1556 1558 1560 1561 1563 1564 1565 1566 1566 1566 1566 1567 1567 1567 1566 1566 1567 1569 1571
1497 1496 1480 1473 1476 1475 1475 1477 1476 1479 1484 1488 1490 1499 1510 1515 1518 1522 1526 1529 1532 1533 1535 1540 1543 1546 1548 1551 1553 1554 1556 1558 1559 1561 1562 1564 1564 1565 1566 1566 1566 1567 1567 1567 1568 1569 1568 1568 1570
1484 1487 1477 1472 1476 1483 1478 1478 1479 1481 1489 1491 1491 1498 1508 1514 1519 1523 1527 1529 1532 1533 1536 1538 1543 1545 1548 1550 1553 1554 1556 1558 1559 1560 1562 1563 1564 1565 1565 1565 1566 1566 1567 1569 1571 1571 1569 1569 1569
1489 1491 1489 1478 1475 1481 1478 1481 1484 1487 1488 1491 1492 1492 1504 1513 1518 1523 1527 1530 1533 1534 1536 1539 1540 1543 1548 1551 1553 1554 1556 1557 1558 1560 1561 1563 1563 1564 1564 1564 1565 1566 1568 1571 1573 1574 1573 1572 1569
1497 1502 1487 1470 1471 1476 1476 1478 1482 1484 1486 1492 1497 1503 1508 1514 1518 1522 1526 1529 1532 1535 1536 1537 1540 1543 1545 1549 1550 1552 1553 1556 1558 1559 1560 1562 1564 1564 1564 1565 1565 1566 1569 1572 1576 1574 1573 1570 1570
1500 1498 1473 1476 1477 1480 1477 1478 1485 1485 1489 1490 1497 1504 1510 1514 1518 1521 1525 1528 1531 1534 1536 1536 1538 1540 1544 1548 1549 1550 1552 1554 1557 1559 1560 1562 1563 1563 1563 1564 1564 1566 1568 1571 1574 1574 1570 1569 1568
1501 1484 1482 1481 1482 1481 1479 1480 1481 1487 1490 1492 1498 1504 1510 1513 1516 1520 1523 1526 1530 1533 1536 1539 1540 1540 1543 1546 1548 1551 1552 1554 1555 1556 1558 1560 1562 1563 1564 1564 1563 1563 1567 1569 1573 1572 1568 1568 1569
1491 1476 1480 1482 1484 1484 1481 1482 1487 1486 1490 1496 1501 1506 1510 1513 1516 1518 1521 1524 1528 1531 1535 1538 1541 1542 1545 1547 1550 1550 1553 1555 1554 1554 1557 1559 1561 1563 1564 1565 1565 1566 1566 1568 1570 1569 1566 1568 1574
1483 1481 1478 1481 1483 1482 1482 1488 1486 1490 1491 1499 1504 1507 1510 1512 1515 1518 1520 1524 1526 1530 1533 1536 1538 1540 1543 1545 1547 1549 1550 1554 1556 1556 1554 1557 1559 1561 1562 1563 1563 1563 1565 1568 1568 1567 1570 1569 1571
1479 1487 1492 1482 1482 1489 1487 1503 1503 1495 1493 1500 1503 1506 1509 1512 1515 1518 1521 1523 1527 1529 1532 1535 1537 1538 1541 1543 1544 1546 1549 1552 1553 1555 1556 1555 1557 1559 1560 1561 1562 1562 1563 1565 1565 1564 1565 1565 1570
1481 1499 1517 1486 1478 1490 1488 1518 1498 1497 1495 1497 1501 1505 1509 1511 1514 1517 1520 1522 1526 1528 1531 1534 1536 1537 1538 1540 1542 1544 1547 1549 1551 1553 1554 1554 1554 1556 1557 1558 1558 1559 1560 1560 1561 1562 1564 1565 1565
1487 1509 1503 1496 1471 1481 1487 1515 1496 1492 1491 1494 1500 1504 1507 1510 1513 1515 1518 1521 1523 1526 1528 1532 1534 1536 1537 1538 1540 1542 1544 1545 1547 1549 1551 1552 1552 1552 1553 1555 1555 1556 1557 1557 1557 1558 1559 1561 1563
1491 1477 1477 1476 1467 1465 1470 1484 1485 1484 1485 1490 1496 1503 1505 1508 1510 1513 1516 1519 1521 1524 1525 1529 1532 1534 1535 1536 1538 1540 1541 1542 1544 1546 1548 1550 1548 1549 1550 1550 1552 1554 1554 1554 1554 1555 1555 1556 1558
1461 1460 1465 1463 1463 1463 1465 1468 1470 1479 1481 1486 1491 1498 1503 1506 1508 1511 1514 1517 1519 1521 1524 1525 1528 1530 1533 1534 1534 1536 1538 1539 1541 1542 1544 1546 1547 1545 1546 1546 1547 1548 1549 1550 1552 1552 1551 1551 1552
1474 1475 1468 1464 1459 1461 1462 1468 1466 1473 1478 1481 1484 1490 1496 1501 1503 1507 1511 1514 1516 1518 1519 1522 1525 1527 1529 1530 1532 1534 1535 1537 1538 1539 1539 1539 1541 1542 1541 1541 1541 1542 1543 1545 1546 1548 1548 1548 1549
1478 1484 1466 1467 1462 1457 1466 1478 1475 1474 1476 1478 1481 1483 1488 1493 1497 1500 1504 1509 1513 1515 1517 1519 1521 1523 1524 1526 1529 1531 1532 1533 1534 1535 1536 1536 1535 1535 1536 1536 1536 1536 1538 1539 1541 1542 1543 1543 1544
1490 1465 1457 1456 1472 1493 1462 1503 1486 1475 1476 1479 1478 1480 1483 1486 1493 1496 1500 1504 1508 1511 1514 1515 1516 1518 1520 1522 1524 1526 1527 1527 1529 1531 1531 1532 1533 1531 1531 1532 1532 1532 1532 1531 1534 1536 1535 1536 1536
1471 1456 1456 1468 1484 1516 1491 1500 1491 1470 1475 1473 1474 1478 1478 1483 1487 1489 1494 1497 1501 1505 1508 1509 1511 1513 1515 1516 1518 1520 1523 1524 1526 1527 1528 1526 1526 1527 1527 1527 1527 1527 1527 1527 1528 1529 1529 1529 1528
1457 1457 1458 1461 1485 1514 1487 1497 1497 1478 1473 1473 1469 1472 1475 1478 1482 1483 1485 1488 1493 1498 1501 1504 1506 1508 1510 1512 1513 1515 1517 1519 1520 1520 1521 1522 1521 1519 1519 1520 1519 1518 1519 1519 1520 1522 1524 1525 1523
1454 1464 1483 1492 1503 1493 1461 1476 1476 1466 1466 1468 1466 1466 1470 1474 1476 1476 1478 1480 1483 1487 1494 1498 1500 1502 1504 1506 1508 1509 1510 1512 1513 1514 1515 1516 1516 1517 1515 1514 1513 1511 1511 1511 1511 1512 1514 1514 1516
1460 1457 1483 1515 1490 1471 1448 1482 1478 1463 1464 1464 1465 1466 1469 1471 1469 1468 1467 1468 1473 1477 1482 1490 1495 1498 1500 1502 1504 1505 1506 1507 1508 1509 1510 1510 1510 1510 1510 1508 1507 1506 1505 1504 1503 1502 1502 1503 1504
1459 1466 1451 1463 1449 1467 1477 1463 1468 1463 1464 1463 1467 1466 1466 1467 1467 1465 1464 1454 1464 1473 1473 1479 1487 1495 1497 1498 1500 1501 1502 1502 1503 1503 1503 1503 1503 1502 1502 1501 1499 1498 1498 1497 1496 1494 1494 1495 1495
1456 1451 1468 1457 1495 1500 1479 1483 1490 1466 1464 1465 1467 1466 1467 1467 1467 1465 1467 1477 1476 1470 1470 1475 1480 1489 1495 1496 1496 1497 1498 1498 1499 1499 1499 1498 1497 1496 1494 1493 1492 1491 1490 1489 1488 1486 1486 1487 1487
1461 1462 1457 1454 1464 1485 1490 1489 1458 1459 1461 1464 1464 1466 1468 1469 1470 1469 1467 1468 1471 1465 1467 1472 1477 1484 1491 1493 1493 1493 1494 1494 1494 1495 1494 1492 1491 1489 1488 1486 1484 1482 1482 1481 1481 1479 1478 1478 1479
1456 1461 1461 1480 1486 1467 1474 1476 1446 1453 1457 1459 1463 1467 1470 1472 1474 1474 1473 1471 1470 1466 1468 1472 1477 1481 1486 1490 1490 1490 1490 1491 1491 1490 1488 1487 1485 1483 1481 1479 1477 1475 1474 1473 1472 1471 1471 1471 1471